Hourly Weather Roundup
Issued by NWS Central Illinois

Home | Current Version | Previous Version | Text Only | Print | Product List | Glossary On
Versions: 1 2 3 4 5 6 7 8 9 10 11 12 13 14 15 16 17 18 19 20 21 22 23 24 25 26 27 28 29 30 31 32 33 34 35 36 37 38 39 40 41 42 43 44 45 46 47 48 49 50
000
NZUS43 KILX 250010
HWRILX

Area Weather Roundup
National Weather Service Lincoln IL
700 PM CDT WED MAY 24 2017

NOTE:  "FAIR" indicates few or no clouds below 12,000 feet, with
       no sigificant weather and/or obstructions to visibility.


CITY           SKY/WX    TMP DP  RH WIND       PRES   REMARKS
Bloomington    CLOUDY    59  55  88 N16G23    29.55R
6HR MIN TEMP:  58; 6HR MAX TEMP:  63; 6HR PCP:  0.05;

Champaign      CLOUDY    60  54  80 N14       29.51R
6HR MIN TEMP:  58; 6HR MAX TEMP:  62; 6HR PCP:  0.31;

Danville       LGT RAIN  58  56  94 NW10      29.47R
6HR MIN TEMP:  58; 6HR MAX TEMP:  60; 6HR PCP:  0.02;

Decatur        CLOUDY    60  55  83 N16       29.53R
6HR MIN TEMP:  60; 6HR MAX TEMP:  66; 6HR PCP:  0.01;

Effingham      CLOUDY    59  59  99 W6        29.53R
6HR MIN TEMP:  59; 6HR MAX TEMP:  61; 6HR PCP:  0.03;

Flora          DRIZZLE   60  56  87 NW5       29.52S
6HR MIN TEMP:  60; 6HR MAX TEMP:  63; 6HR PCP:  0.07;

Galesburg      CLOUDY    59  52  78 N13       29.60S
6HR MIN TEMP:  59; 6HR MAX TEMP:  65;

Jacksonville   CLOUDY    59  55  85 N12       29.58R
6HR MIN TEMP:  57; 6HR MAX TEMP:  65;

Lacon          CLOUDY    59  55  86 N7        29.57S
6HR MIN TEMP:  58; 6HR MAX TEMP:  60;

Lawrenceville  LGT RAIN  59  57  93 NW10      29.49R FOG
6HR MIN TEMP:  58; 6HR MAX TEMP:  60; 6HR PCP:  0.53;

Litchfield     CLOUDY    63  52  67 NW16      29.55R
6HR MIN TEMP:  60; 6HR MAX TEMP:  65;

$$


CITY           SKY/WX    TMP DP  RH WIND       PRES   REMARKS
Lincoln        CLOUDY    62  55  78 N10G20    29.55R
6HR MIN TEMP:  62; 6HR MAX TEMP:  68;

Macomb         MOSUNNY   61  54  77 NE14      29.62R
6HR MIN TEMP:  56; 6HR MAX TEMP:  63; 6HR PCP:  0.05;

Mattoon        LGT RAIN  59  58  96 N10       29.50R
6HR MIN TEMP:  57; 6HR MAX TEMP:  60; 6HR PCP:  0.05;

Mt Carmel AP   RAIN      59  56  92 W12       29.49R
6HR MIN TEMP:  59; 6HR MAX TEMP:  60;

Olney-Noble AP DRIZZLE   60  60 100 W7        29.52R
Paris AP       CLOUDY    60  57  91 N10G17    29.49R
6HR MIN TEMP:  58; 6HR MAX TEMP:  61; 6HR PCP:  0.51;

Peoria         CLOUDY    60  54  80 N8        29.57S
6HR MIN TEMP:  60; 6HR MAX TEMP:  64;

Pontiac        CLOUDY    61  57  87 N9        29.55R
6HR MIN TEMP:  60; 6HR MAX TEMP:  62;

Rantoul        DRIZZLE   60  57  90 N12G21    29.51S
6HR MIN TEMP:  60; 6HR MAX TEMP:  64;

Robinson       LGT RAIN  57  56  95 NW9       29.49R
6HR MIN TEMP:  56; 6HR MAX TEMP:  58; 6HR PCP:  0.44;

Springfield    MOSUNNY   63  56  78 N15G21    29.55S
6HR MIN TEMP:  60; 6HR MAX TEMP:  68; 6HR PCP:  0.12;

Taylorville    DRIZZLE   58  56  94 W10       29.54R
6HR MIN TEMP:  58; 6HR MAX TEMP:  65; 6HR PCP:  0.01;

$$

...REGIONAL REPORTS...


CITY           SKY/WX    TMP DP  RH WIND       PRES   REMARKS
Chicago O`Hare CLOUDY    60  50  69 N18G28    29.54F
Kankakee       DRIZZLE   56  55  93 CALM      29.54S
Moline         CLOUDY    63  51  65 N8        29.61R
Mount Sterling CLOUDY    59  53  79 N14       29.59S
Mount Vernon   LGT RAIN  60  57  89 W3        29.53S
Pittsfield     PTSUNNY   62  52  70 NW12      29.60R
Quincy         MOSUNNY   62  52  69 NW14      29.60R
Rockford       CLOUDY    59  53  80 N12       29.61S
$$


CITY           SKY/WX    TMP DP  RH WIND       PRES   REMARKS
Burlington     PTSUNNY   63  51  65 N14       29.60R
Cedar Rapids   SUNNY     57  51  80 N13       29.64S
Des Moines     PTSUNNY   62  48  60 NE10      29.66S
Kirksville     MOSUNNY   59  52  77 N5        29.65S
Ottumwa        PTSUNNY   61  48  62 N13       29.64S
St Louis       PTSUNNY   65  48  54 NW9       29.58R
$$


CITY           SKY/WX    TMP DP  RH WIND       PRES   REMARKS
Terre Haute    CLOUDY    60  56  86 NW6       29.46S
Evansville     LGT RAIN  59  55  87 W7        29.51R
Indianapolis   CLOUDY    60  56  86 N12       29.44R
Lafayette      CLOUDY    59  56  89 N15       29.47R
Madison        CLOUDY    55  51  86 N8        29.64S
Milwaukee      CLOUDY    58  50  75 N18G29    29.60S
$$






USA.gov is the U.S. government's official web portal to all federal, state and local government web resources and services.